This demonstration page uses our WeatherBlox Daily Observations layout. Learn more.

36.17497, -115.13722

Hourly Observations for August 8, 2018

Temp ( °F °C ) Dew Point ( °F °C ) Humidity (%) Winds ( mph kmh ) Pressure ( in mb ) Visibility ( mi km ) Precip ( " mm )
12:53 am 00:53 Clear 90 32.2 38 3.3 16 16 NNW 3 6 29.76 1008 10 16.0934 0 0
1:53 am 01:53 Clear 88 31.1 39 3.9 18 18 Calm 29.77 1008 10 16.0934 0 0
2:53 am 02:53 Clear 89 31.7 40 4.4 18 18 Calm 29.78 1008 10 16.0934 0 0
3:53 am 03:53 Clear 85 29.4 42 5.6 22 22 Calm 29.79 1009 10 16.0934 0 0
4:53 am 04:53 Clear 85 29.4 39 3.9 20 20 NNE 3 6 29.81 1010 10 16.0934 0 0
5:53 am 05:53 Clear 83 28.3 40 4.4 22 22 N 5 7 29.85 1011 10 16.0934 0 0
6:53 am 06:53 Sunny 86 30 49 9.4 28 28 ENE 6 9 29.88 1012 10 16.0934 0 0
7:53 am 07:53 Sunny 88 31.1 61 16.1 40 40 ESE 12 19 29.91 1013 10 16.0934 0 0
8:53 am 08:53 Sunny 91 32.8 60 15.6 35 35 SE 12 19 29.92 1013 10 16.0934 0 0
9:53 am 09:53 Sunny 94 34.4 61 16.1 33 33 ESE 13 20 29.92 1013 10 16.0934 0 0
10:53 am 10:53 Sunny 96 35.6 61 16.1 31 31 ESE 10 17 29.92 1013 10 16.0934 0 0
11:53 am 11:53 Sunny 99 37.2 58 14.4 26 26 ESE 9 15 29.9 1013 10 16.0934 0 0
12:53 pm 12:53 Sunny 101 38.3 59 15 25 25 ESE 12 19 29.88 1012 10 16.0934 0 0
1:53 pm 13:53 Sunny 102 38.9 58 14.4 23 23 ESE 10 17 29.86 1011 10 16.0934 0 0
2:53 pm 14:53 Sunny 103 39.4 57 13.9 22 22 VRB 5 7 29.83 1010 10 16.0934 0 0
3:53 pm 15:53 Sunny 105 40.6 56 13.3 20 20 ESE 6 9 29.8 1009 10 16.0934 0 0
4:53 pm 16:53 Sunny 105 40.6 54 12.2 18 18 SE 8 13 29.79 1009 10 16.0934 0 0
5:30 pm 17:30 Sunny 101 38.3 56 13.3 22 22 SW 20 31 29.62 1003 10 16.0934 0 0
5:53 pm 17:53 Sunny 101 38.3 55 12.8 22 22 SW 14 22 29.8 1009 10 16.0934 0 0
6:53 pm 18:53 Sunny 101 38.3 55 12.8 22 22 W 9 15 29.79 1009 10 16.0934 0 0
7:53 pm 19:53 Clear 101 38.3 41 5 13 13 W 12 19 29.8 1009 10 16.0934 0 0
8:53 pm 20:53 Clear 99 37.2 44 6.7 15 15 ENE 5 7 29.81 1010 10 16.0934 0 0
9:53 pm 21:53 Clear 97 36.1 45 7.2 17 17 Calm 29.82 1010 10 16.0934 0 0
10:53 pm 22:53 Clear 95 35 52 11.1 23 23 SSW 8 13 29.83 1010 10 16.0934 0 0
11:53 pm 23:53 Clear 92 33.3 48 8.9 22 22 Calm 29.84 1010 10 16.0934 0 0

Powered by AerisWeather